This is the latest recevied weather packets stored in our database for station/object TF3VP-10. If no packets are shown the sender has not sent any weather packets the latest 10 day(s).
| Time | Temp. | Humidity | Pressure | Rain* | Wind** | Luminosity | Snow |
|---|---|---|---|---|---|---|---|
| 1778274679 | 4.44° C | 65% | 1037.6 hPa | - | - | - | - |
| 1778273779 | 4.44° C | 66% | 1037.7 hPa | - | - | - | - |
| 1778272879 | 4.44° C | 65% | 1037.9 hPa | - | - | - | - |
| 1778271979 | 4.44° C | 64% | 1037.8 hPa | - | - | - | - |
| 1778271079 | 4.44° C | 64% | 1037.9 hPa | - | - | - | - |
| 1778270179 | 4.44° C | 65% | 1037.8 hPa | - | - | - | - |
| 1778269279 | 4.44° C | 65% | 1037.7 hPa | - | - | - | - |
| 1778268379 | 4.44° C | 63% | 1037.7 hPa | - | - | - | - |
| 1778267479 | 4.44° C | 64% | 1037.6 hPa | - | - | - | - |
| 1778266579 | 4.44° C | 65% | 1037.8 hPa | - | - | - | - |
| 1778265679 | 4.44° C | 65% | 1037.7 hPa | - | - | - | - |
| 1778264779 | 5° C | 62% | 1037.8 hPa | - | - | - | - |
| 1778263879 | 5.56° C | 62% | 1037.8 hPa | - | - | - | - |
| 1778262979 | 5.56° C | 57% | 1037.7 hPa | - | - | - | - |
| 1778262079 | 5.56° C | 60% | 1037.6 hPa | - | - | - | - |
| 1778261179 | 5.56° C | 59% | 1037.7 hPa | - | - | - | - |
| 1778260279 | 5.56° C | 57% | 1037.6 hPa | - | - | - | - |
| 1778259379 | 5.56° C | 56% | 1037.7 hPa | - | - | - | - |
| 1778258479 | 5.56° C | 55% | 1037.8 hPa | - | - | - | - |
| 1778257579 | 5.56° C | 53% | 1037.9 hPa | - | - | - | - |
| 1778256679 | 5.56° C | 53% | 1037.6 hPa | - | - | - | - |
| 1778255779 | 5° C | 50% | 1037.8 hPa | - | - | - | - |
| 1778254879 | 5° C | 51% | 1037.8 hPa | - | - | - | - |
| 1778253979 | 5.56° C | 48% | 1037.8 hPa | - | - | - | - |
| 1778253079 | 6.11° C | 46% | 1037.8 hPa | - | - | - | - |
* Rain since midnight (hover to see other rain measurements)
** Current wind speed in m/s (hover to see current wind gust speed)